Sheldon, IA

9:34 AM CST on February 23, 2017 (GMT -0600)
Sheldon Municipal

Weather History for KSHL - June, 2012

Change the Weather History Date:

Saturday, June 9, 2012

  Actual Average Record
Temperature  
Mean Temperature 78 °F -  
Max Temperature 89 °F 78 °F 96 °F (1973)
Min Temperature 66 °F 55 °F 44 °F (1955)
Cooling Degree Days 12    
Growing Degree Days 28 (Base 50)    
Moisture  
Dew Point 54 °F    
Average Humidity 43    
Maximum Humidity 60    
Minimum Humidity 26    
Precipitation  
Precipitation 0.00 in - - ()
Sea Level Pressure  
Sea Level Pressure 29.71 in    
Wind  
Wind Speed 17 mph (South)    
Max Wind Speed 28 mph    
Max Gust Speed 38 mph    
Visibility 10 miles    
Events      
Averages and records for this station are not official NWS values.
T = Trace of Precipitation, MM = Missing Value Source: NWS Daily Summary

Daily Weather History Graph

Daily Weather History Graph

Search for Another Location

Airport or City:

Trip Planner

Search our weather history database for the weather conditions in past years. The results will help you decide how hot, cold, wet, or windy it might be!

Date:

Astronomy

Jun. 09, 2012 Rise Set
Actual Time 5:43 AM CDT 9:02 PM CDT
Civil Twilight 5:08 AM CDT 9:37 PM CDT
Nautical Twilight 4:22 AM CDT 10:23 PM CDT
Astronomical Twilight 3:25 AM CDT 11:20 PM CDT
Moon 12:19 AM CDT (6/9) 11:37 AM CDT (6/9)
Length of Visible Light 16h 29m
Length of Day
15h 19m
Waning Gibbous, 68% of the Moon is Illuminated
Jun 9
Waning Gibbous
Jun 11
Last Quarter
Jun 19
New
Jun 26
First Quarter
Jul 3
Full

Hourly Weather History & Observations

Time (CDT) Temp. Heat Index Dew Point Humidity Pressure Visibility Wind Dir Wind Speed Gust Speed Precip Events Conditions
12:15 AM 73.4 °F - 53.6 °F 50% 29.79 in 10.0 mi South 15.0 mph - N/A   Clear
12:35 AM 73.4 °F - 53.6 °F 50% 29.80 in 10.0 mi South 13.8 mph 19.6 mph N/A   Clear
12:55 AM 73.4 °F - 53.6 °F 50% 29.79 in 10.0 mi South 13.8 mph - N/A   Clear
1:15 AM 73.4 °F - 53.6 °F 50% 29.79 in 10.0 mi South 13.8 mph 20.7 mph N/A   Clear
1:35 AM 73.4 °F - 51.8 °F 47% 29.79 in 10.0 mi South 17.3 mph - N/A   Clear
1:55 AM 71.6 °F - 53.6 °F 53% 29.79 in 10.0 mi South 12.7 mph - N/A   Clear
2:15 AM 71.6 °F - 53.6 °F 53% 29.79 in 10.0 mi South 15.0 mph - N/A   Clear
2:35 AM 69.8 °F - 51.8 °F 53% 29.79 in 10.0 mi South 12.7 mph - N/A   Clear
2:55 AM 69.8 °F - 51.8 °F 53% 29.79 in 10.0 mi South 10.4 mph - N/A   Clear
3:15 AM 69.8 °F - 51.8 °F 53% 29.79 in - South 10.4 mph 16.1 mph N/A   Clear
3:35 AM 69.8 °F - 51.8 °F 53% 29.78 in 10.0 mi South 12.7 mph - N/A   Clear
3:55 AM 69.8 °F - 51.8 °F 53% 29.78 in 10.0 mi South 13.8 mph 20.7 mph N/A   Clear
4:15 AM 68.0 °F - 51.8 °F 56% 29.78 in 10.0 mi South 15.0 mph - N/A   Clear
4:35 AM 68.0 °F - 51.8 °F 56% 29.78 in 10.0 mi South 13.8 mph - N/A   Clear
4:55 AM 68.0 °F - 51.8 °F 56% 29.78 in 10.0 mi South 12.7 mph - N/A   Clear
5:15 AM 68.0 °F - 51.8 °F 56% 29.77 in 10.0 mi South 15.0 mph - N/A   Clear
5:35 AM 66.2 °F - 51.8 °F 60% 29.77 in 10.0 mi South 15.0 mph - N/A   Clear
5:55 AM 66.2 °F - 51.8 °F 60% 29.77 in 10.0 mi South 16.1 mph - N/A   Clear
6:15 AM 66.2 °F - 51.8 °F 60% 29.77 in 10.0 mi South 13.8 mph - N/A   Clear
6:35 AM 66.2 °F - 51.8 °F 60% 29.77 in 10.0 mi South 13.8 mph - N/A   Clear
6:55 AM 68.0 °F - 53.6 °F 60% 29.77 in 10.0 mi South 13.8 mph - N/A   Clear
7:15 AM 69.8 °F - 53.6 °F 56% 29.77 in 10.0 mi South 13.8 mph 20.7 mph N/A   Clear
7:35 AM 69.8 °F - 53.6 °F 56% 29.77 in 10.0 mi South 16.1 mph - N/A   Clear
7:55 AM 71.6 °F - 53.6 °F 53% 29.77 in 10.0 mi South 16.1 mph 24.2 mph N/A   Clear
8:15 AM 71.6 °F - 53.6 °F 53% 29.76 in 10.0 mi South 19.6 mph - N/A   Clear
8:35 AM 73.4 °F - 53.6 °F 50% 29.76 in 10.0 mi South 17.3 mph 26.5 mph N/A   Clear
8:55 AM 75.2 °F - 55.4 °F 50% 29.76 in 10.0 mi South 20.7 mph 27.6 mph N/A   Clear
9:15 AM 75.2 °F - 55.4 °F 50% 29.75 in 10.0 mi SSW 17.3 mph 26.5 mph N/A   Clear
9:35 AM 77.0 °F - 55.4 °F 47% 29.74 in 10.0 mi SSW 19.6 mph - N/A   Clear
9:55 AM 77.0 °F - 55.4 °F 47% 29.74 in 10.0 mi South 18.4 mph 26.5 mph N/A   Clear
10:15 AM 78.8 °F - 57.2 °F 47% 29.73 in 10.0 mi SSW 16.1 mph 25.3 mph N/A   Clear
10:35 AM 80.6 °F 80.8 °F 57.2 °F 45% 29.73 in 10.0 mi SSW 16.1 mph 21.9 mph N/A   Clear
10:55 AM 80.6 °F 80.8 °F 57.2 °F 45% 29.73 in 10.0 mi SSW 15.0 mph 29.9 mph N/A   Clear
11:15 AM 80.6 °F 80.8 °F 57.2 °F 45% 29.73 in 10.0 mi South 20.7 mph 27.6 mph N/A   Clear
11:35 AM 82.4 °F 82.0 °F 57.2 °F 42% 29.72 in 10.0 mi South 18.4 mph 27.6 mph N/A   Clear
11:55 AM 84.2 °F 83.5 °F 57.2 °F 40% 29.71 in 10.0 mi South 21.9 mph 35.7 mph N/A   Clear
12:15 PM 84.2 °F 83.5 °F 57.2 °F 40% 29.71 in 10.0 mi South 19.6 mph 32.2 mph N/A   Clear
12:35 PM 84.2 °F 83.5 °F 57.2 °F 40% 29.70 in 10.0 mi South 23.0 mph - N/A   Clear
12:55 PM 84.2 °F 83.5 °F 57.2 °F 40% 29.68 in 10.0 mi South 20.7 mph 33.4 mph N/A   Clear
1:15 PM 86.0 °F 84.5 °F 55.4 °F 35% 29.68 in 10.0 mi South 26.5 mph 32.2 mph N/A   Clear
1:35 PM 86.0 °F 84.9 °F 57.2 °F 37% 29.67 in 10.0 mi South 23.0 mph 34.5 mph N/A   Clear
1:55 PM 87.8 °F 86.1 °F 55.4 °F 33% 29.67 in 10.0 mi SSE 25.3 mph 33.4 mph N/A   Clear
2:35 PM 87.8 °F 86.1 °F 55.4 °F 33% 29.65 in 10.0 mi SSE 26.5 mph - N/A   Clear
2:55 PM 87.8 °F 86.1 °F 55.4 °F 33% 29.65 in 10.0 mi South 24.2 mph 31.1 mph N/A   Clear
3:15 PM 89.6 °F 87.7 °F 55.4 °F 31% 29.64 in 10.0 mi SSE 26.5 mph 34.5 mph N/A   Clear
3:35 PM 89.6 °F 87.3 °F 53.6 °F 29% 29.65 in 10.0 mi South 24.2 mph 38.0 mph N/A   Clear
3:55 PM 89.6 °F 87.3 °F 53.6 °F 29% 29.65 in 10.0 mi SSE 20.7 mph 33.4 mph N/A   Clear
4:15 PM 89.6 °F 87.3 °F 53.6 °F 29% 29.65 in 10.0 mi South 21.9 mph 29.9 mph N/A   Clear
4:35 PM 89.6 °F 87.3 °F 53.6 °F 29% 29.65 in 10.0 mi South 21.9 mph 29.9 mph N/A   Clear
4:55 PM 89.6 °F - 51.8 °F 27% 29.64 in 10.0 mi South 24.2 mph 33.4 mph N/A   Clear
5:15 PM 89.6 °F - 50.0 °F 26% 29.63 in 10.0 mi South 20.7 mph 32.2 mph N/A   Clear
5:35 PM 89.6 °F - 51.8 °F 27% 29.63 in 10.0 mi South 20.7 mph 33.4 mph N/A   Clear
5:55 PM 89.6 °F - 50.0 °F 26% 29.63 in 10.0 mi SSE 25.3 mph 31.1 mph N/A   Clear
6:15 PM 87.8 °F - 50.0 °F 27% 29.62 in 10.0 mi South 25.3 mph 33.4 mph N/A   Clear
6:35 PM 87.8 °F - 51.8 °F 29% 29.61 in 10.0 mi South 21.9 mph 31.1 mph N/A   Clear
6:55 PM 87.8 °F - 50.0 °F 27% 29.61 in 10.0 mi South 24.2 mph 31.1 mph N/A   Clear
7:15 PM 86.0 °F - 51.8 °F 31% 29.61 in 10.0 mi South 21.9 mph 31.1 mph N/A   Clear
7:35 PM 86.0 °F - 51.8 °F 31% 29.61 in 10.0 mi South 27.6 mph 34.5 mph N/A   Clear
7:55 PM 86.0 °F - 51.8 °F 31% 29.61 in 10.0 mi South 23.0 mph 31.1 mph N/A   Clear
8:15 PM 84.2 °F - 51.8 °F 33% 29.62 in 10.0 mi South 23.0 mph - N/A   Clear
8:35 PM 84.2 °F 82.8 °F 53.6 °F 35% 29.62 in 10.0 mi South 17.3 mph 25.3 mph N/A   Clear
8:55 PM 82.4 °F 81.4 °F 53.6 °F 37% 29.63 in 10.0 mi SSE 16.1 mph - N/A   Clear
9:15 PM 80.6 °F 80.3 °F 53.6 °F 39% 29.63 in 10.0 mi SSE 13.8 mph 20.7 mph N/A   Clear
9:35 PM 80.6 °F 80.3 °F 53.6 °F 39% 29.65 in 10.0 mi SSE 12.7 mph - N/A   Clear
9:55 PM 80.6 °F 80.5 °F 55.4 °F 42% 29.65 in 10.0 mi SSE 13.8 mph - N/A   Clear
10:15 PM 78.8 °F - 55.4 °F 44% 29.66 in 10.0 mi SSE 12.7 mph - N/A   Clear
10:35 PM 78.8 °F - 55.4 °F 44% 29.67 in 10.0 mi SSE 13.8 mph - N/A   Clear
10:55 PM 78.8 °F - 55.4 °F 44% 29.66 in 10.0 mi SSE 15.0 mph - N/A   Clear
11:15 PM 77.0 °F - 55.4 °F 47% 29.66 in 10.0 mi SSE 16.1 mph - N/A   Clear
11:35 PM 77.0 °F - 55.4 °F 47% 29.66 in 10.0 mi SSE 16.1 mph - N/A   Clear
11:55 PM 77.0 °F - 55.4 °F 47% 29.66 in 10.0 mi SSE 16.1 mph - N/A   Clear